Weather History for Howell, MI

Change the Weather History Date:

Saturday, August 24, 2013

  Actual Average Record
Temperature  
Mean Temperature 68 °F -  
Max Temperature 82 °F 78 °F 91 °F (1998)
Min Temperature 54 °F 58 °F 53 °F (1996)
Cooling Degree Days 3    
Growing Degree Days 18 (Base 50)    
Moisture  
Dew Point 55 °F    
Average Humidity 67    
Maximum Humidity 97    
Minimum Humidity 32    
Precipitation  
Precipitation 0.00 in - - ()
Sea Level Pressure  
Sea Level Pressure 30.28 in    
Wind  
Wind Speed 2 mph (SSE)    
Max Wind Speed 7 mph    
Max Gust Speed -    
Visibility 10 miles    
Events      
Averages and records for this station are not official NWS values.
T = Trace of Precipitation, MM = Missing Value Source: NWS Daily Summary

Daily Weather History Graph

Daily Weather History Graph

Search for Another Location

Airport:

Trip Planner

Search our weather history database for the weather conditions in past years. The results will help you decide how hot, cold, wet, or windy it might be!

Date:

Astronomy

Aug. 24, 2013 Rise Set
Actual Time 6:52 AM EDT 8:23 PM EDT
Civil Twilight 6:22 AM EDT 8:52 PM EDT
Nautical Twilight 5:47 AM EDT 9:28 PM EDT
Astronomical Twilight 5:08 AM EDT 10:06 PM EDT
Moon 10:09 PM EDT (8/24) 10:58 AM EDT (8/24)
Length of Visible Light 14h 29m
Length of Day
13h 30m
Waning Gibbous, 84% of the Moon is Illuminated
Aug 24
Waning Gibbous
Aug 28
Last Quarter
Sep 5
New
Sep 12
First Quarter
Sep 19
Full

Hourly Weather History & Observations

Time (EDT) Temp. Heat Index Dew Point Humidity Pressure Visibility Wind Dir Wind Speed Gust Speed Precip Events Conditions
12:15 AM 59.9 °F - 56.5 °F 88% 30.23 in 10.0 mi ENE 3.5 mph - N/A   Clear
12:34 AM 59.4 °F - 55.9 °F 88% 30.23 in 10.0 mi Calm Calm - N/A   Clear
12:55 AM 59.9 °F - 56.7 °F 89% 30.23 in 10.0 mi ENE 5.8 mph - N/A   Clear
1:14 AM 58.8 °F - 55.8 °F 90% 30.22 in 10.0 mi East 3.5 mph - N/A   Clear
1:35 AM 59.9 °F - 56.1 °F 87% 30.23 in 10.0 mi Calm Calm - N/A   Clear
1:55 AM 59.4 °F - 55.8 °F 88% 30.23 in 10.0 mi Calm Calm - N/A   Clear
2:14 AM 58.5 °F - 55.2 °F 89% 30.23 in 10.0 mi Calm Calm - N/A   Clear
2:35 AM 58.6 °F - 55.4 °F 89% 30.23 in 10.0 mi Calm Calm - N/A   Clear
2:54 AM 57.4 °F - 55.0 °F 92% 30.23 in 10.0 mi Calm Calm - N/A   Clear
3:15 AM 57.7 °F - 55.2 °F 91% 30.24 in 10.0 mi Calm Calm - N/A   Clear
3:35 AM 57.7 °F - 55.2 °F 91% 30.24 in 10.0 mi Calm Calm - N/A   Clear
3:54 AM 57.9 °F - 55.4 °F 91% 30.24 in 10.0 mi Calm Calm - N/A   Clear
4:15 AM 57.4 °F - 55.0 °F 92% 30.25 in 10.0 mi Calm Calm - N/A   Clear
4:34 AM 57.7 °F - 55.6 °F 92% 30.25 in 10.0 mi Calm Calm - N/A   Clear
4:55 AM 57.4 °F - 55.2 °F 92% 30.26 in 10.0 mi Calm Calm - N/A   Clear
5:14 AM 55.9 °F - 54.1 °F 94% 30.26 in 10.0 mi Calm Calm - N/A   Clear
5:35 AM 56.8 °F - 55.4 °F 95% 30.27 in 10.0 mi Calm Calm - N/A   Clear
5:55 AM 56.8 °F - 55.4 °F 95% 30.27 in 10.0 mi Calm Calm - N/A   Scattered Clouds
6:14 AM 55.8 °F - 54.5 °F 96% 30.28 in 10.0 mi Calm Calm - N/A   Scattered Clouds
6:35 AM 54.7 °F - 53.6 °F 96% 30.28 in 10.0 mi Calm Calm - N/A   Scattered Clouds
6:54 AM 54.0 °F - 53.2 °F 97% 30.29 in 10.0 mi Calm Calm - N/A   Clear
7:14 AM 54.7 °F - 54.0 °F 97% 30.29 in 10.0 mi Calm Calm - N/A   Clear
7:35 AM 55.2 °F - 54.5 °F 97% 30.30 in 10.0 mi Calm Calm - N/A   Clear
7:54 AM 57.7 °F - 57.0 °F 97% 30.31 in 10.0 mi Calm Calm - N/A   Clear
8:15 AM 60.6 °F - 59.2 °F 95% 30.32 in 10.0 mi Calm Calm - N/A   Clear
8:35 AM 63.3 °F - 59.9 °F 89% 30.32 in 10.0 mi Calm Calm - N/A   Clear
8:54 AM 66.4 °F - 61.0 °F 83% 30.32 in 10.0 mi ESE 3.5 mph - N/A   Clear
9:15 AM 68.9 °F - 59.5 °F 72% 30.33 in 10.0 mi SSE 4.6 mph - N/A   Clear
9:34 AM 70.2 °F - 60.8 °F 72% 30.33 in 10.0 mi South 3.5 mph - N/A   Clear
9:55 AM 71.2 °F - 61.5 °F 71% 30.33 in 10.0 mi Calm Calm - N/A   Clear
10:15 AM 72.9 °F - 61.3 °F 67% 30.33 in 10.0 mi Calm Calm - N/A   Clear
10:34 AM 75.2 °F - 60.3 °F 60% 30.33 in 10.0 mi Calm Calm - N/A   Clear
10:55 AM 76.1 °F - 56.7 °F 51% 30.33 in 10.0 mi Calm Calm - N/A   Clear
11:14 AM 76.1 °F - 57.6 °F 53% 30.33 in 10.0 mi Calm Calm - N/A   Clear
11:34 AM 78.4 °F - 55.2 °F 45% 30.32 in 10.0 mi SSW 5.8 mph - N/A   Clear
11:55 AM 78.3 °F - 54.5 °F 44% 30.32 in 10.0 mi Calm Calm - N/A   Mostly Cloudy
12:14 PM 79.9 °F - 52.3 °F 38% 30.32 in 10.0 mi SSE 5.8 mph - N/A   Scattered Clouds
12:35 PM 79.0 °F - 53.8 °F 42% 30.32 in 10.0 mi Calm Calm - N/A   Scattered Clouds
12:54 PM 77.4 °F - 53.1 °F 43% 30.31 in 10.0 mi Calm Calm - N/A   Scattered Clouds
1:15 PM 77.7 °F - 52.5 °F 41% 30.30 in 10.0 mi Calm Calm - N/A   Mostly Cloudy
1:34 PM 79.3 °F - 52.2 °F 39% 30.30 in 10.0 mi East 3.5 mph - N/A   Mostly Cloudy
1:55 PM 77.9 °F - 52.0 °F 40% 30.30 in 10.0 mi ESE 3.5 mph - N/A   Scattered Clouds
2:14 PM 79.2 °F - 51.3 °F 38% 30.30 in 10.0 mi Calm Calm - N/A   Mostly Cloudy
2:35 PM 81.7 °F - 51.4 °F 35% 30.30 in 10.0 mi South 6.9 mph - N/A   Overcast
2:55 PM 81.1 °F - 50.5 °F 34% 30.29 in 10.0 mi Calm Calm - N/A   Mostly Cloudy
3:14 PM 82.6 °F - 50.0 °F 32% 30.29 in 10.0 mi SW 5.8 mph - N/A   Scattered Clouds
3:35 PM 79.0 °F - 50.2 °F 36% 30.29 in 10.0 mi SSW 4.6 mph - N/A   Clear
3:54 PM 82.4 °F - 51.8 °F 35% 30.29 in 10.0 mi WSW 5.8 mph - N/A   Clear
4:15 PM 81.9 °F - 52.3 °F 36% 30.29 in 10.0 mi South 4.6 mph - N/A   Scattered Clouds
4:35 PM 81.7 °F - 52.3 °F 36% 30.28 in 10.0 mi SSW 5.8 mph - N/A   Scattered Clouds
4:54 PM 79.5 °F - 52.2 °F 38% 30.28 in 10.0 mi SSE 3.5 mph - N/A   Clear
5:15 PM 79.3 °F - 51.4 °F 38% 30.28 in 10.0 mi SE 3.5 mph - N/A   Clear
5:34 PM 81.5 °F - 51.8 °F 36% 30.27 in 10.0 mi South 5.8 mph - N/A   Mostly Cloudy
5:55 PM 80.6 °F - 52.7 °F 38% 30.28 in 10.0 mi SSW 4.6 mph - N/A   Scattered Clouds
6:14 PM 80.6 °F - 51.8 °F 37% 30.27 in 10.0 mi SW 3.5 mph - N/A   Clear
6:35 PM 80.2 °F 80.2 °F 54.7 °F 41% 30.27 in 10.0 mi SSE 6.9 mph - N/A   Clear
6:55 PM 79.7 °F - 55.4 °F 43% 30.27 in 10.0 mi South 6.9 mph - N/A   Clear
7:14 PM 78.8 °F - 55.4 °F 44% 30.27 in 10.0 mi South 4.6 mph - N/A   Clear
7:35 PM 77.4 °F - 56.5 °F 48% 30.27 in 10.0 mi South 5.8 mph - N/A   Clear
7:54 PM 75.9 °F - 58.1 °F 54% 30.27 in 10.0 mi SSE 4.6 mph - N/A   Clear
8:15 PM 74.1 °F - 58.3 °F 58% 30.28 in 10.0 mi SSE 3.5 mph - N/A   Clear
8:34 PM 72.9 °F - 58.5 °F 60% 30.29 in 10.0 mi SSE 3.5 mph - N/A   Clear
8:55 PM 71.2 °F - 58.5 °F 64% 30.29 in 10.0 mi SSE 4.6 mph - N/A   Clear
9:15 PM 70.0 °F - 58.3 °F 66% 30.29 in 10.0 mi SSE 4.6 mph - N/A   Clear
9:34 PM 69.1 °F - 57.7 °F 67% 30.29 in 10.0 mi SSE 5.8 mph - N/A   Clear
9:55 PM 68.0 °F - 57.2 °F 68% 30.29 in 10.0 mi SE 5.8 mph - N/A   Clear
10:14 PM 68.0 °F - 57.6 °F 69% 30.29 in 10.0 mi SE 6.9 mph - N/A   Clear
10:35 PM 66.9 °F - 57.6 °F 72% 30.29 in 10.0 mi SSE 4.6 mph - N/A   Clear
10:54 PM 65.5 °F - 57.9 °F 77% 30.29 in 10.0 mi SSE 4.6 mph - N/A   Clear
11:15 PM 64.2 °F - 58.1 °F 80% 30.29 in 10.0 mi SSE 4.6 mph - N/A   Clear
11:35 PM 63.7 °F - 58.3 °F 83% 30.29 in 10.0 mi SE 4.6 mph - N/A   Clear
11:55 PM 62.8 °F - 58.1 °F 85% 30.29 in 10.0 mi SE 3.5 mph - N/A   Clear